Regional Weather Roundup
Issued by NWS Sterling, VA

Home | Current Version | Previous Version | Graphics & Text | Print | Product List | Glossary Off
Versions: 1 2 3 4 5 6 7 8 9 10 11 12 13 14 15 16 17 18 19 20 21 22 23 24 25 26 27

000
ASUS41 KLWX 232311
RWRLWX

REGIONAL WEATHER ROUNDUP
NATIONAL WEATHER SERVICE BALTIMORE MD/WASHINGTON DC
700 PM EDT FRI JUN 23 2017

Note: "FAIR" indicates few or no clouds below 12,000 feet
with no significant weather and/or obstructions to visibility.
 TC=TEMPERATURE CELSIUS

 * =Non NWS site. Station does not report precipitation (e.g. rain,
    snow, etc.), thunder, or fog.

DCZ001-MDZ009-015-VAZ040>042-051-053>054-240000-
WASHINGTON METRO

CITY           SKY/WX    TMP DP  RH WIND       PRES   REMARKS
WASHINGTON NAT CLOUDY    87  76  69 S13       29.70F HX  97
DULLES         CLOUDY    85  72  65 SW10      29.69F HX  91
ANDREWS AFB    CLOUDY    85  74  69 S12       29.70F HX  92
FT BELVOIR     CLOUDY    86  73  65 S9        29.69F HX  93
QUANTICO       LGT RAIN  88  74  63 SW12G21   29.71F HX  96
COLLEGE PARK*  CLOUDY    85  73  67 SW6       29.69F HX  92
LEESBURG*      CLOUDY   N/A N/A N/A SW10G18   29.71F
MANASSAS*      CLOUDY    86  74  67 SW10      29.70F HX  94
GAITHERSBURG*  PTSUNNY   85  70  60 SW10G17   29.72S

$$

MDZ006>007-011-014-240000-
BALTIMORE METRO

CITY           SKY/WX    TMP DP  RH WIND       PRES   REMARKS
BWI AIRPORT    CLOUDY    85  74  69 SW13G21   29.68S HX  92
MD SCIENCE CTR   N/A     88  73  61 MISG      29.68S HX  95
MARTIN STATE   PTSUNNY   86  77  74 S16G23    29.70S HX  97
ANNAPOLIS      MOSUNNY   85  77  77 VRB6G16   29.69F HX  95
FORT MEADE*    CLOUDY    81  73  78 SW12G18   29.72S

$$

MDZ012-015-019>023-240000-
MARYLAND EASTERN SHORE

CITY           SKY/WX    TMP DP  RH WIND       PRES   REMARKS
OCEAN CITY     MOSUNNY   81  74  79 SW13G24   29.76S
SALISBURY      SUNNY     87  75  67 SW16G22   29.74S HX  96
BAY BRIDGE AP* MOSUNNY   86  75  70 SW10G18   29.70S HX  95
CAMBRIDGE*     SUNNY     86  73  66 S10G18    29.73S HX  93
EASTON*        PTSUNNY   86  73  66 SW14G21   29.75F HX  93

$$

MDZ017>025-240000-
SOUTHERN MARYLAND

CITY           SKY/WX    TMP DP  RH WIND       PRES   REMARKS
PATUXENT RIVER MOSUNNY   87  73  62 SW15G24   29.73S HX  94
ST INIGOES     SUNNY     88  74  63 SW14      29.74S HX  96
LEONARDTOWN*   SUNNY     86  72  62 SW10      29.75S HX  92

$$

MDZ003>005-240000-
NORTH CENTRAL MARYLAND

CITY           SKY/WX    TMP DP  RH WIND       PRES   REMARKS
FREDERICK*     SUNNY     84  68  58 SW14G22   29.70F
HAGERSTOWN APT MOSUNNY   84  70  62 S15G24    29.65F
WESTMINSTER*   PTSUNNY   84  73  70 S12       29.70S HX  91

$$

MDZ501>502-240000-
WESTERN MARYLAND

CITY           SKY/WX    TMP DP  RH WIND       PRES   REMARKS
OAKLAND*       NOT AVBL
CUMBERLAND*    PTSUNNY   82  66  57 W5        29.72S

$$

VAZ025>031-240000-
SHENANDOAH VALLEY

CITY           SKY/WX    TMP DP  RH WIND       PRES   REMARKS
WINCHESTER*    SUNNY     82  66  57 S9G16     29.69F
FRONT ROYAL*   SUNNY     86  70  58 S7G18     29.69F HX  90
LURAY*         MOSUNNY   82  70  65 S15       29.73S
NEW MARKET*    CLOUDY    84  66  54 SW12G22   29.72F
STAUNTON*      MOSUNNY   82  69  65 S12       29.79F
WAYNESBORO*    CLOUDY    82  69  64 SW8       29.79F

$$

WVZ021-048>050-054>055-240000-
EASTERN WEST VIRGINIA PANHANDLE

CITY           SKY/WX    TMP DP  RH WIND       PRES   REMARKS
MARTINSBURG    CLOUDY    84  69  60 S10       29.67F
PETERSBURG*    PTSUNNY   86  69  56 SW10      29.71R

$$

VAZ036>039-050-240000-
CENTRAL FOOTHILLS

CITY           SKY/WX    TMP DP  RH WIND       PRES   REMARKS
CHARLOTTESVILL CLOUDY    85  73  67 SW10      29.75S HX  91
CULPEPER*      MOSUNNY   87  74  65 SW15G22   29.73S HX  94
ORANGE*        CLOUDY    82  72  69 SW16      29.74S
GORDONSVILLE*  CLOUDY    84  73  70 SW8G18    29.74S HX  91
WARRENTON*     MOSUNNY   87  69  56 S9G22     29.72S HX  91

$$

VAZ055>057-240000-
NORTH AND CENTRAL PIEDMONT

CITY           SKY/WX    TMP DP  RH WIND       PRES   REMARKS
FREDERICKSBRG* MOSUNNY   88  74  64 SW8       29.72S HX  96
STAFFORD*      MOSUNNY   85  73  65 S10G17    29.76F HX  92

$$

NCZ024-NYZ072-PAZ021-071-VAZ022-071-240000-
OTHER REGIONAL OBSERVATIONS

CITY           SKY/WX    TMP DP  RH WIND       PRES   REMARKS
NEW YORK CITY  CLOUDY    82  73  74 W7        29.67F
PHILADELPHIA   PTSUNNY   85  72  65 SW24G35   29.67R HX  91
PITTSBURGH     LGT RAIN  69  68  96 S5        29.67R
ROANOKE        MOSUNNY   84  70  62 S12G21    29.81F
RICHMOND       MOSUNNY   88  72  58 SW15      29.77S HX  94
RALEIGH        MOSUNNY   89  69  51 SW16G24   29.85F HX  93

$$

ANZ530>537-240000-
MARINE OBSERVATIONS

STATION/POSITION TIME  TEMP    WIND        PRES
                       AIR SEA DIR/SP/G
                 (UTC) (F)     (DEG/KT/KT) (MB)
THOMAS PT LIGHT  2300   84 78  210/ 16/ 18   N/A
BALT KEY BRIDGE  2242   85     210/ 16/ 22 1004.6F
COVE POINT       2242   86     230/ 18/ 23 1007.1F
LEWISETTA        2242   87 80  230/ 14/ 17 1007.1F
SOLOMONS ISLAND  2242   86 77  220/ 12/ 18   N/A
PINEY POINT      2248          240/ 10/ 16   N/A

$$





USA.gov is the U.S. government's official web portal to all federal, state and local government web resources and services.